Regional Weather Roundup
Issued by NWS Charleston, SC

Current Version | Previous Version | Text Only | Print | Product List | Glossary Off
Versions: 1 2 3 4 5 6 7 8 9 10 11 12 13 14 15 16 17 18 19 20 21 22 23 24 25 26 27 28 29 30 31 32 33 34 35 36 37 38 39 40 41 42 43 44 45 46 47 48 49 50

000
ASUS42 KCHS 290827
RWRCHS

REGIONAL WEATHER ROUNDUP
NATIONAL WEATHER SERVICE CHARLESTON SC
400 AM EDT WED JUL 29 2015

NOTE: "FAIR" INDICATES FEW OR NO CLOUDS BELOW 12,000 FEET WITH NO
SIGNIFICANT WEATHER AND/OR OBSTRUCTIONS TO VISIBILITY.

NOT ALL STATIONS ARE QUALITY CONTROLLED BY THE NATIONAL
WEATHER SERVICE. USE DATA WITH CAUTION...ESPECIALLY
DEWPOINT OBSERVATIONS.

SCZ027-030-031-034>040-042>050-290900-
...SOUTHEAST SOUTH CAROLINA...

CITY           SKY/WX    TMP DP  RH WIND       PRES   REMARKS
N CHARLESTON   PTCLDY    75  72  90 N6        29.94F
WATERFRONT PRK   N/A     80  76  87 NE5       29.91F
MOUNT PLEASANT LGT RAIN  75  73  94 N3        29.94S
JOHNS ISLAND   FAIR      77  75  94 CALM      29.93S
PINOPOLIS      NOT AVBL
MONCKS CORNER  FAIR      73  72  94 CALM      29.94F
SUMMERVILLE    FAIR      73  73 100 CALM      29.95F
BEAUFORT MCAS  CLEAR     78  75  90 N3        29.94F
BEAUFORT ARPT  FAIR      77  77 100 CALM      29.93S
HILTON HEAD IS CLOUDY    77  75  94 N3        29.94F
WALTERBORO     SUNNY     75  72  88 CALM      29.95F
ALLENDALE      PTSUNNY   75  73  94 CALM      29.94S

...SOUTHERN MIDLANDS AND PEE DEE...

CITY           SKY/WX    TMP DP  RH WIND       PRES   REMARKS
GEORGETOWN     NOT AVBL
KINGSTREE      NOT AVBL
ORANGEBURG     PTCLDY    76  72  87 CALM      29.96F
BARNWELL       FAIR      77  75  94 CALM      29.95F
AIKEN          FAIR      73  70  88 S3        29.99F
MANNING        FAIR      72  70  94 CALM      29.95F
COLUMBIA       MOCLDY    78  73  84 SE3       29.95F
SUMTER         PTCLDY    76  70  83 SE1       29.94F
FLORENCE       PTCLDY    75  71  87 E3        29.96F
MYRTLE BEACH   CLEAR     75  70  83 NE5       29.97F
N MYRTLE BEACH CLEAR     74  71  91 NE6       29.95F

$$

GAZ063-065-086>088-099>101-113>116-118-119-134>141-150-290900-
...SOUTHEAST GEORGIA...

CITY           SKY/WX    TMP DP  RH WIND       PRES   REMARKS
SAVANNAH ARPT  CLEAR     77  75  93 CALM      29.94F
HUNTER AAF     CLEAR     77  77 100 N1        29.91F
FORT STEWART   CLEAR     76  74  93 CALM      29.91F
STATESBORO     PTCLDY    74  32  21 CALM      29.94F
SYLVANIA       PTSUNNY   77  76  98 CALM      29.95S
CLAXTON        FAIR      75  73  94 CALM      29.93F

...CSRA...CENTRAL AND FAR SOUTHEAST GEORGIA...

CITY           SKY/WX    TMP DP  RH WIND       PRES   REMARKS
THOMSON        CLEAR     77  77  99 SE3       29.98S
AUGUSTA-BUSH   CLEAR     75  73  93 SE5       29.94F
AUGUSTA-DANIEL PTCLDY    79  74  84 SE5       29.96F
SWAINSBORO     FAIR     N/A N/A N/A SE3       29.94F
VIDALIA        CLEAR     77  73  88 CALM      29.94F
EASTMAN        FAIR      77  77 100 CALM      29.95F
HAZLEHURST     FAIR      77  75  92 CALM      29.92F
ALMA           CLEAR     74  72  93 CALM      29.93F
WAYCROSS       CLEAR     77  77  99 CALM      29.93F
JESUP          FAIR      77  75  94 CALM      29.93F
BAXLEY         FAIR      75  73  94 CALM      29.93F
BRUNSWICK        N/A     73  72  94 CALM      29.93F
SAINT SIMONS   CLEAR     78  76  93 CALM      29.92F

$$

SCZ027-028-034-036>038-045-046-048>050-GAZ119-141-290900-
...LAKE AND SUPPLEMENTAL COASTAL OBSERVATIONS...

STATION/POSITION TIME  TEMP    WIND        PRES    WAVE   SWELL
                       AIR SEA DIR/SP/G            HT/PER HT/PER/DIR
                 (UTC) (F)     (DEG/KT/KT) (MB)    (FT/S) (FT/S/D)
UPR LAKE MARION  NOT AVBL
WINYAH BAY       0700   77        CALM     1013.0F
LAKE MURRAY      0700   81     180/  9/ 10 1014.2F
ACE BASIN NERRS  NOT AVBL
FORT PULASKI     0800   79 86  330/  5/  5 1014.0F
SAPELO ISLAND    0800   77      40/  3     1013.0F

$$

ANZ835-935-AMZ111-154-330-350-352-354-370-450-454-472-290900-
...C-MAN AND BUOY OBSERVATIONS...

STATION/POSITION TIME  TEMP    WIND        PRES    WAVE   SWELL
                       AIR SEA DIR/SP/G            HT/PER HT/PER/DIR
                 (UTC) (F)     (DEG/KT/KT) (MB)    (FT/S) (FT/S/D)
BUOY 41004       0750   83 84   50/ 10/ 12 1012.8F   3/ 7   3/ 7
BUOY 41008       0750   81 82   40/  8/ 10 1013.3F   3/ 5   2/100/ 5
FOLLY BEACH CMAN 0800   81      50/  8/  9 1013.6F
CAPERS NEARSHORE 0708   81      70/ 10/ 14 1013.9F
FRIPP NEARSHORE  0700   82      60/  6/  8 1013.5F


STATION/POSITION TIME  TEMP    WIND        PRES    WAVE   SWELL
                       AIR SEA DIR/SP/G            HT/PER HT/PER/DIR
                 (UTC) (F)     (DEG/KT/KT) (MB)    (FT/S) (FT/S/D)
5E ST. MARYS GA  0721      82                N/A     2/ 4
FRYING PAN BUOY  0750   83 84   50/ 10/ 12 1014.3F
BUOY 41025       NOT AVBL
CAPE LOOKOUT NC  0800   80      80/ 14/ 15 1014.4F
BUOY 41002       0750   81 81  260/ 16/ 19 1013.2F   5/ 7   2/130/10
BUOY 41010       0720   83 84  220/ 14/ 17 1013.6F
ST AUGUSTINE FL  0800   77 81  300/  4/  5 1014.5R


$$



USA.gov is the U.S. government's official web portal to all federal, state and local government web resources and services.